LKMT Weather Reports


Display with metric or nautical units.
time (UTC)temp
F
wind
direction
speed
MPH
gust
MPH
rain 1hr
in
rain 24hr
in
rain mn
in
humidity
%
barometer
mb
20260504030232 46 250 8.0 0.0 0.00 0.00 0.00 61 1015.0
20260504023223 50 260 10.0 0.0 0.00 0.00 0.00 57 1015.0
20260504022158 57 240 7.0 0.0 0.00 0.00 0.00 38
20260504020240 50 250 7.0 0.0 0.00 0.00 0.00 53 1015.0
20260504013224 48 260 9.0 0.0 0.00 0.00 0.00 61 1015.0
20260504012155 48 0 5.0 0.0 0.00 0.00 0.00 57
20260504010234 50 230 5.0 0.0 0.00 0.00 0.00 57 1015.0
20260504003224 48 230 6.0 0.0 0.00 0.00 0.00 61 1015.0
20260504002156 50 0 2.0 0.0 0.00 0.00 0.00 53
20260504000241 48 260 3.0 0.0 0.00 0.00 0.00 61 1015.0
20260503233224 52 280 3.0 0.0 0.00 0.00 0.00 53 1016.0
20260503232159 54 280 5.0 0.0 0.00 0.00 0.00 46
20260503230232 54 290 5.0 0.0 0.00 0.00 0.00 50 1016.0
20260503223224 54 260 5.0 0.0 0.00 0.00 0.00 50 1016.0
20260503222156 63 190 9.0 0.0 0.00 0.00 0.00 29
20260503220233 61 190 8.0 0.0 0.00 0.00 0.00 33 1016.0
20260503213224 61 190 9.0 0.0 0.00 0.00 0.00 36 1016.0
20260503212157 63 180 7.0 0.0 0.00 0.00 0.00 31
20260503210233 61 170 7.0 0.0 0.00 0.00 0.00 36 1016.0
20260503203224 61 210 10.0 0.0 0.00 0.00 0.00 36 1016.0
20260503202156 61 210 9.0 0.0 0.00 0.00 0.00 33
20260503200237 61 210 10.0 0.0 0.00 0.00 0.00 36 1016.0
20260503193224 61 210 10.0 0.0 0.00 0.00 0.00 36 1016.0
20260503192155 64 200 9.0 0.0 0.00 0.00 0.00 29
20260503190239 63 200 9.0 0.0 0.00 0.00 0.00 33 1016.0
20260503183231 64 210 10.0 0.0 0.00 0.00 0.00 29 1016.0
20260503182157 66 220 12.0 0.0 0.00 0.00 0.00 25
20260503180235 64 220 12.0 0.0 0.00 0.00 0.00 31 1016.0
20260503173231 68 210 12.0 0.0 0.00 0.00 0.00 30 1016.0
20260503172157 72 220 14.0 0.0 0.00 0.00 0.00 23
20260503170239 70 220 14.0 0.0 0.00 0.00 0.00 28 1015.0
20260503150232 73 210 15.0 0.0 0.00 0.00 0.00 29 1016.0
20260503140231 75 210 14.0 0.0 0.00 0.00 0.00 29 1017.0
20260503130239 73 220 16.0 0.0 0.00 0.00 0.00 29 1017.0
20260503110234 73 230 13.0 0.0 0.00 0.00 0.00 33 1018.0
20260503100239 72 210 13.0 0.0 0.00 0.00 0.00 33 1019.0
20260503090233 70 190 13.0 0.0 0.00 0.00 0.00 35 1019.0
20260503080232 68 220 14.0 0.0 0.00 0.00 0.00 40 1019.0
20260503072154 64 250 7.0 0.0 0.00 0.00 0.00 45
20260503070233 63 250 7.0 0.0 0.00 0.00 0.00 51 1019.0
20260503060231 55 250 6.0 0.0 0.00 0.00 0.00 62 1019.0
20260503053223 50 240 5.0 0.0 0.00 0.00 0.00 71 1019.0
20260503052137 48 230 5.0 0.0 0.00 0.00 0.00 76
20260503050231 46 230 5.0 0.0 0.00 0.00 0.00 75 1019.0
20260503043223 43 200 3.0 0.0 0.00 0.00 0.00 75 1019.0
20260503042155 43 200 5.0 0.0 0.00 0.00 0.00 75
20260503040232 41 190 2.0 0.0 0.00 0.00 0.00 80 1019.0
20260503033231 39 0 1.0 0.0 0.00 0.00 0.00 86 1019.0